TimeCDT,TemperatureF,Dew PointF,Humidity,Sea Level PressureIn,VisibilityMPH,Wind Direction,Wind SpeedMPH,Gust SpeedMPH,PrecipitationIn,Events,Conditions,WindDirDegrees,DateUTC
12:53 AM,42.1,39.9,92,29.83,10.0,South,5.8,-,N/A,,Overcast,190,2014-04-07 05:53:00
1:53 AM,44.1,39.9,85,29.83,10.0,Calm,Calm,-,0.00,,Overcast,0,2014-04-07 06:53:00
2:53 AM,41.0,39.0,93,29.81,10.0,South,5.8,-,0.00,,Scattered Clouds,190,2014-04-07 07:53:00
3:53 AM,39.0,37.9,96,29.82,6.0,SW,4.6,-,N/A,,Mostly Cloudy,230,2014-04-07 08:53:00
4:04 AM,37.9,37.0,97,29.80,1.5,SW,4.6,-,N/A,,Scattered Clouds,230,2014-04-07 09:04:00
4:14 AM,37.0,36.0,96,29.80,3.0,SW,5.8,-,N/A,,Partly Cloudy,230,2014-04-07 09:14:00
4:24 AM,37.0,36.0,96,29.80,1.8,SSW,3.5,-,N/A,,Scattered Clouds,210,2014-04-07 09:24:00
4:32 AM,37.0,36.0,96,29.80,3.0,SSW,4.6,-,N/A,,Mostly Cloudy,210,2014-04-07 09:32:00
4:53 AM,36.0,34.0,93,29.82,6.0,West,9.2,-,N/A,,Mostly Cloudy,280,2014-04-07 09:53:00
5:53 AM,35.1,33.1,92,29.84,10.0,NW,6.9,-,N/A,,Clear,310,2014-04-07 10:53:00
6:53 AM,33.1,30.9,92,29.86,10.0,NNW,9.2,-,N/A,,Clear,330,2014-04-07 11:53:00
7:53 AM,35.1,33.1,92,29.89,8.0,NNW,5.8,-,N/A,,Clear,330,2014-04-07 12:53:00
8:53 AM,37.9,34.0,86,29.90,10.0,NNW,11.5,-,N/A,,Clear,340,2014-04-07 13:53:00
9:53 AM,41.0,36.0,82,29.91,10.0,NNW,9.2,-,N/A,,Clear,340,2014-04-07 14:53:00
10:53 AM,44.1,37.9,79,29.91,10.0,NNW,10.4,-,N/A,,Clear,330,2014-04-07 15:53:00
11:53 AM,46.0,39.0,76,29.92,10.0,NW,9.2,-,N/A,,Clear,320,2014-04-07 16:53:00
12:53 PM,48.9,39.9,71,29.92,10.0,NNW,10.4,-,N/A,,Partly Cloudy,340,2014-04-07 17:53:00
1:53 PM,51.1,41.0,68,29.91,10.0,NNW,10.4,-,N/A,,Clear,330,2014-04-07 18:53:00
2:53 PM,53.6,39.2,58,29.89,10.0,NNW,11.5,-,N/A,,Partly Cloudy,340,2014-04-07 19:53:00
3:53 PM,52.0,39.0,61,29.90,10.0,NNW,9.2,-,N/A,,Scattered Clouds,340,2014-04-07 20:53:00
4:53 PM,52.0,39.0,61,29.90,10.0,North,12.7,-,N/A,,Partly Cloudy,360,2014-04-07 21:53:00
5:53 PM,53.1,39.0,59,29.90,10.0,NNW,13.8,-,N/A,,Mostly Cloudy,330,2014-04-07 22:53:00
6:53 PM,48.9,39.0,69,29.91,10.0,North,10.4,-,N/A,,Overcast,360,2014-04-07 23:53:00
7:53 PM,46.0,37.0,71,29.91,10.0,North,9.2,-,0.00,Rain,Light Rain,360,2014-04-08 00:53:00
8:18 PM,42.1,37.9,85,29.90,10.0,WNW,11.5,-,0.00,,Overcast,300,2014-04-08 01:18:00
8:39 PM,42.1,37.9,85,29.91,9.0,NW,11.5,-,0.01,Rain,Light Rain,320,2014-04-08 01:39:00
8:53 PM,42.1,39.0,89,29.94,8.0,NNW,6.9,-,0.03,Rain,Light Rain,330,2014-04-08 01:53:00
9:53 PM,39.9,37.0,89,29.94,10.0,NNW,9.2,-,0.00,,Partly Cloudy,330,2014-04-08 02:53:00
10:53 PM,39.9,37.0,89,29.97,10.0,North,20.7,-,N/A,,Overcast,360,2014-04-08 03:53:00
11:07 PM,39.9,35.1,83,29.94,10.0,North,15.0,-,N/A,,Overcast,10,2014-04-08 04:07:00
11:53 PM,37.9,34.0,86,29.99,10.0,North,15.0,-,N/A,,Mostly Cloudy,350,2014-04-08 04:53:00